Regional Weather Roundup
Issued by NWS Cleveland, OH

Home | Current Version | Previous Version | Graphics & Text | Print | Product List | Glossary On
Versions: 1 2 3 4 5 6 7 8 9 10 11 12 13 14 15 16 17 18 19 20 21 22 23 24 25 26 27 28 29 30 31 32 33 34 35 36 37 38 39 40 41 42 43 44 45 46 47 48 49 50
000
ASUS41 KCLE 220300
RWRCLE
OHIO REGIONAL WEATHER ROUNDUP
NATIONAL WEATHER SERVICE WILMINGTON, OH
1100 PM EDT SUN SEP 21 2014

NOTE: "FAIR" INDICATES FEW OR NO CLOUDS BELOW 12,000 FEET WITH NO
SIGNIFICANT WEATHER AND/OR OBSTRUCTIONS TO VISIBILITY.

OHZ001>008-015>018-024>027-034-035-043-044-220400-
   NORTHWEST OHIO

CITY           SKY/WX    TMP DP  RH WIND       PRES   REMARKS
DEFIANCE       CLOUDY   N/A N/A N/A VRB5      30.02R
FINDLAY        CLOUDY    56  48  74 NW12      30.00R
TOLEDO EXPRESS CLOUDY    54  49  83 NW5       30.00R
TOLEDO METCALF CLOUDY    55  48  77 NW13      30.01R
LIMA           CLOUDY    58  47  66 N13       30.02R
$$

OHZ009>014-019>023-028>033-038-089-220400-
   NORTHEAST OHIO

CITY           SKY/WX    TMP DP  RH WIND       PRES   REMARKS
CLE-HOPKINS    CLOUDY    55  49  80 N18G25    29.95R
CLE-LAKEFRONT  CLOUDY    57  49  74 NW25G36   29.91R
CUY CO. ARPT   CLOUDY    57  52  82 NW15G23   29.92R
LORAIN-ELYRIA  LGT RAIN  57  51  80 N10G22    29.96R
ASHTABULA      CLOUDY    55  50  83 NW14G26   29.88R
AKRON-CANTON   CLOUDY    56  50  80 NW15G22   29.91R
WOOSTER        NOT AVBL
MANSFIELD      CLOUDY    54  51  90 NW20G26   29.96R
YOUNGSTOWN     CLOUDY    55  52  89 NW9       29.88R
$$

OHZ042-051>053-060>062-070>072-077>081-220400-
  SOUTHWEST OHIO

CITY           SKY/WX    TMP DP  RH WIND       PRES   REMARKS
CINC-COVINGTON CLEAR     59  46  62 NW9       30.05R
CINC-LUNKEN    CLEAR     60  48  64 NW9       30.06R
HAMILTON       CLEAR     57  50  77 NW8       30.06R
DAYTON         NOT AVBL
WRIGHT-PAT AFB CLOUDY    59  48  66 NW16      30.02R
DAYTON GENERAL CLEAR     57  49  74 NW10      30.03R
WILMINGTON     CLEAR     57  47  69 NW13      30.02R
$$

OHZ036-037-039>041-045>050-054>059-063>069-073>076-082>088-220400-
  CENTRAL AND SOUTHEAST OHIO

CITY           SKY/WX    TMP DP  RH WIND       PRES   REMARKS
COLUMBUS       PTCLDY    61  49  64 NW15      29.97R
OSU AIRPORT    CLOUDY    56  51  84 NW20G29   29.99R
BOLTON FIELD   NOT AVBL
RICKENBACK AFB NOT AVBL
NEWARK         PTCLDY    58  50  75 NW14G29   29.96R
MARION         MOCLDY    53  48  83 NW15G24   30.00R
LANCASTER      CLOUDY    60  51  72 NW6       29.97R
ZANESVILLE     CLEAR     58  49  72 W9        29.93R
NEW PHILLY     CLOUDY    60  51  72 W13       29.92R
$$



USA.gov is the U.S. government's official web portal to all federal, state and local government web resources and services.